| time (UTC) | temp C | wind direction | speed KPH | gust KPH | rain 1hr cm | rain 24hr cm | rain mn cm | humidity % | barometer mb |
| 20260906191605 | 23 | 118 | 0.0 | 11.3 | 0.00 | 0.03 | 0.03 | 100 | 1016.5 |
| 20260906190052 | 23 | 76 | 3.2 | 9.7 | 0.00 | 0.03 | 0.03 | 100 | 1016.7 |
| 20260906184553 | 23 | 46 | 3.2 | 11.3 | 0.00 | 0.03 | 0.03 | 100 | 1016.8 |
| 20260906183052 | 23 | 65 | 3.2 | 8.0 | 0.00 | 0.03 | 0.03 | 100 | 1017.0 |
| 20260906181549 | 23 | 119 | 0.0 | 14.5 | 0.00 | 0.03 | 0.03 | 100 | 1017.0 |
| 20260906180104 | 22 | 65 | 0.0 | 9.7 | 0.00 | 0.03 | 0.03 | 100 | 1017.2 |
| 20260906174552 | 22 | 84 | 3.2 | 11.3 | 0.00 | 0.03 | 0.03 | 100 | 1017.5 |
| 20260906173037 | 21 | 117 | 1.6 | 6.4 | 0.00 | 0.03 | 0.03 | 100 | 1017.5 |
| 20260906171534 | 20 | 127 | 1.6 | 6.4 | 0.00 | 0.03 | 0.03 | 100 | 1017.9 |
| 20260906170032 | 19 | 128 | 1.6 | 8.0 | 0.00 | 0.03 | 0.03 | 100 | 1017.9 |
| 20260906164529 | 19 | 134 | 1.6 | 11.3 | 0.00 | 0.03 | 0.03 | 100 | 1017.9 |
| 20260906163027 | 19 | 115 | 1.6 | 9.7 | 0.00 | 0.03 | 0.03 | 100 | 1017.9 |
| 20260906161528 | 18 | 117 | 1.6 | 9.7 | 0.00 | 0.03 | 0.03 | 100 | 1018.1 |
| 20260906160030 | 18 | 108 | 3.2 | 9.7 | 0.00 | 0.03 | 0.03 | 100 | 1017.8 |
| 20260906154531 | 18 | 94 | 0.0 | 6.4 | 0.00 | 0.03 | 0.03 | 100 | 1017.7 |
| 20260906153033 | 18 | 93 | 0.0 | 4.8 | 0.00 | 0.03 | 0.03 | 100 | 1018.0 |
| 20260906151521 | 18 | 95 | 1.6 | 6.4 | 0.00 | 0.03 | 0.03 | 100 | 1018.0 |
| 20260906150023 | 17 | 92 | 0.0 | 6.4 | 0.00 | 0.03 | 0.03 | 100 | 1018.1 |
| 20260906144518 | 17 | 79 | 0.0 | 8.0 | 0.00 | 0.03 | 0.03 | 100 | 1017.9 |
| 20260906143023 | 17 | 86 | 3.2 | 11.3 | 0.00 | 0.03 | 0.03 | 100 | 1018.1 |
| 20260906141514 | 17 | 64 | 0.0 | 3.2 | 0.00 | 0.03 | 0.03 | 100 | 1018.2 |
| 20260906140019 | 16 | 65 | 0.0 | 8.0 | 0.00 | 0.03 | 0.03 | 100 | 1018.3 |
| 20260906134511 | 16 | 60 | 0.0 | 6.4 | 0.00 | 0.03 | 0.03 | 100 | 1018.3 |
| 20260906133021 | 15 | 60 | 1.6 | 6.4 | 0.00 | 0.03 | 0.03 | 100 | 1018.4 |
| 20260906131512 | 15 | 60 | 0.0 | 3.2 | 0.00 | 0.03 | 0.03 | 100 | 1018.3 |
| 20260906130009 | 14 | 61 | 0.0 | 4.8 | 0.00 | 0.03 | 0.03 | 100 | 1018.3 |
| 20260906124506 | 13 | 61 | 0.0 | 3.2 | 0.00 | 0.03 | 0.03 | 100 | 1018.1 |
| 20260906123008 | 13 | 60 | 0.0 | 0.0 | 0.00 | 0.03 | 0.03 | 100 | 1017.8 |
| 20260906121501 | 13 | 60 | 0.0 | 3.2 | 0.00 | 0.03 | 0.03 | 100 | 1017.5 |
| 20260906120001 | 13 | 61 | 0.0 | 0.0 | 0.00 | 0.03 | 0.03 | 100 | 1017.5 |
| 20260906114604 | 13 | 60 | 0.0 | 0.0 | 0.00 | 0.03 | 0.03 | 100 | 1017.6 |
| 20260906113101 | 13 | 60 | 0.0 | 0.0 | 0.00 | 0.03 | 0.03 | 100 | 1017.4 |
| 20260906111605 | 13 | 61 | 0.0 | 0.0 | 0.00 | 0.03 | 0.03 | 100 | 1017.4 |
| 20260906104556 | 13 | 61 | 0.0 | 0.0 | 0.00 | 0.03 | 0.03 | 100 | 1016.9 |
| 20260906103108 | 13 | 60 | 0.0 | 0.0 | 0.00 | 0.03 | 0.03 | 100 | 1017.1 |
| 20260906101556 | 13 | 60 | 0.0 | 0.0 | 0.00 | 0.03 | 0.03 | 100 | 1016.9 |
| 20260906100059 | 13 | 61 | 0.0 | 0.0 | 0.00 | 0.03 | 0.03 | 100 | 1017.0 |
| 20260906094551 | 14 | 60 | 0.0 | 0.0 | 0.00 | 0.03 | 0.03 | 100 | 1016.7 |
| 20260906093052 | 14 | 60 | 0.0 | 0.0 | 0.00 | 0.03 | 0.03 | 100 | 1016.9 |
| 20260906091548 | 15 | 61 | 0.0 | 0.0 | 0.00 | 0.03 | 0.03 | 100 | 1016.7 |
| 20260906090059 | 15 | 61 | 0.0 | 0.0 | 0.00 | 0.03 | 0.03 | 100 | 1016.6 |
| 20260906084547 | 15 | 61 | 0.0 | 0.0 | 0.00 | 0.03 | 0.03 | 100 | 1016.7 |
| 20260906083045 | 15 | 61 | 0.0 | 0.0 | 0.00 | 0.03 | 0.03 | 100 | 1017.0 |
| 20260906081547 | 15 | 60 | 0.0 | 0.0 | 0.00 | 0.03 | 0.03 | 100 | 1017.0 |
| 20260906080043 | 15 | 60 | 0.0 | 0.0 | 0.03 | 0.03 | 0.03 | 100 | 1017.1 |
| 20260906074541 | 15 | 60 | 0.0 | 0.0 | 0.03 | 0.03 | 0.03 | 100 | 1017.2 |
| 20260906073056 | 15 | 61 | 0.0 | 0.0 | 0.03 | 0.03 | 0.03 | 100 | 1017.3 |
| 20260906071539 | 15 | 60 | 0.0 | 0.0 | 0.03 | 0.03 | 0.03 | 100 | 1017.3 |
| 20260906070041 | 15 | 61 | 0.0 | 0.0 | 0.00 | 0.00 | 0.00 | 100 | 1016.9 |
| 20260906064538 | 15 | 61 | 0.0 | 0.0 | 0.00 | 0.00 | 0.00 | 100 | 1016.9 |
| 20260906063046 | 16 | 60 | 0.0 | 0.0 | 0.00 | 0.00 | 0.00 | 100 | 1016.8 |
| 20260906061536 | 16 | 61 | 0.0 | 0.0 | 0.00 | 0.00 | 0.00 | 100 | 1016.6 |
| 20260906060035 | 16 | 61 | 0.0 | 0.0 | 0.00 | 0.00 | 0.00 | 100 | 1016.8 |
| 20260906054536 | 16 | 61 | 0.0 | 0.0 | 0.00 | 0.00 | 0.00 | 100 | 1016.7 |
| 20260906053033 | 16 | 60 | 0.0 | 0.0 | 0.00 | 0.00 | 0.00 | 100 | 1017.0 |
| 20260906051550 | 16 | 61 | 0.0 | 0.0 | 0.00 | 0.00 | 0.00 | 100 | 1016.8 |
| 20260906050038 | 16 | 61 | 0.0 | 0.0 | 0.00 | 0.00 | 0.00 | 100 | 1017.3 |
| 20260906044534 | 16 | 60 | 0.0 | 0.0 | 0.00 | 0.00 | 0.00 | 100 | 1017.1 |
| 20260906043028 | 16 | 61 | 0.0 | 0.0 | 0.00 | 0.00 | 0.00 | 100 | 1017.3 |
| 20260906041527 | 16 | 60 | 0.0 | 0.0 | 0.00 | 0.00 | 0.00 | 100 | 1017.3 |
| 20260906040035 | 16 | 60 | 0.0 | 0.0 | 0.00 | 0.00 | 0.00 | 100 | 1017.1 |
| 20260906034533 | 17 | 61 | 0.0 | 0.0 | 0.00 | 0.00 | 0.00 | 100 | 1017.0 |
| 20260906033026 | 17 | 61 | 0.0 | 0.0 | 0.00 | 0.00 | 0.00 | 100 | 1016.8 |
| 20260906031535 | 17 | 61 | 0.0 | 4.8 | 0.00 | 0.00 | 0.00 | 100 | 1016.7 |
| 20260906030025 | 17 | 60 | 0.0 | 6.4 | 0.00 | 0.00 | 0.00 | 100 | 1016.6 |
| 20260906024525 | 17 | 61 | 0.0 | 3.2 | 0.00 | 0.00 | 0.00 | 100 | 1016.3 |
| 20260906023025 | 17 | 61 | 0.0 | 4.8 | 0.00 | 0.00 | 0.00 | 100 | 1015.8 |
| 20260906021524 | 17 | 61 | 1.6 | 8.0 | 0.00 | 0.00 | 0.00 | 100 | 1015.8 |
| 20260906020024 | 17 | 61 | 1.6 | 6.4 | 0.00 | 0.00 | 0.00 | 100 | 1015.8 |
| 20260906014528 | 17 | 61 | 0.0 | 3.2 | 0.00 | 0.00 | 0.00 | 100 | 1015.6 |
| 20260906013026 | 17 | 61 | 0.0 | 3.2 | 0.00 | 0.00 | 0.00 | 100 | 1015.5 |
| 20260906011522 | 17 | 61 | 0.0 | 6.4 | 0.00 | 0.00 | 0.00 | 100 | 1015.6 |
| 20260906010025 | 17 | 61 | 0.0 | 4.8 | 0.00 | 0.00 | 0.00 | 100 | 1015.5 |
| 20260906004521 | 17 | 61 | 0.0 | 8.0 | 0.00 | 0.00 | 0.00 | 100 | 1015.4 |
| 20260906003021 | 17 | 63 | 0.0 | 4.8 | 0.00 | 0.00 | 0.00 | 100 | 1015.3 |
| 20260906001521 | 17 | 63 | 0.0 | 9.7 | 0.00 | 0.00 | 0.00 | 100 | 1015.5 |
| 20260906000021 | 17 | 65 | 0.0 | 4.8 | 0.00 | 0.00 | 0.00 | 100 | 1015.6 |
| 20260905234520 | 18 | 65 | 0.0 | 0.0 | 0.00 | 0.00 | 0.00 | 100 | 1015.7 |
| 20260905233019 | 18 | 65 | 1.6 | 3.2 | 0.00 | 0.00 | 0.00 | 100 | 1015.8 |
| 20260905231525 | 18 | 66 | 0.0 | 3.2 | 0.00 | 0.00 | 0.00 | 100 | 1016.1 |
| 20260905230023 | 18 | 66 | 0.0 | 4.8 | 0.00 | 0.00 | 0.00 | 100 | 1015.7 |
| 20260905224518 | 18 | 65 | 0.0 | 0.0 | 0.00 | 0.00 | 0.00 | 100 | 1016.2 |
| 20260905223018 | 18 | 65 | 0.0 | 1.6 | 0.00 | 0.00 | 0.00 | 100 | 1016.1 |
| 20260905221517 | 18 | 65 | 0.0 | 3.2 | 0.00 | 0.00 | 0.00 | 100 | 1016.1 |
| 20260905220017 | 18 | 65 | 0.0 | 6.4 | 0.00 | 0.00 | 0.00 | 100 | 1016.1 |
| 20260905214517 | 18 | 66 | 0.0 | 8.0 | 0.00 | 0.00 | 0.00 | 100 | 1016.4 |
| 20260905213019 | 19 | 61 | 0.0 | 6.4 | 0.00 | 0.00 | 0.00 | 100 | 1016.8 |
| 20260905211517 | 20 | 60 | 0.0 | 1.6 | 0.00 | 0.00 | 0.00 | 100 | 1016.5 |
| 20260905210022 | 20 | 59 | 0.0 | 0.0 | 0.00 | 0.00 | 0.00 | 100 | 1016.8 |
| 20260905204515 | 20 | 59 | 0.0 | 6.4 | 0.00 | 0.00 | 0.00 | 100 | 1016.6 |
| 20260905203016 | 20 | 59 | 1.6 | 6.4 | 0.00 | 0.00 | 0.00 | 100 | 1016.5 |
| 20260905201514 | 20 | 59 | 0.0 | 8.0 | 0.00 | 0.00 | 0.00 | 100 | 1016.8 |
| 20260905200021 | 20 | 72 | 0.0 | 6.4 | 0.00 | 0.00 | 0.00 | 100 | 1016.5 |
| 20260905194513 | 21 | 73 | 1.6 | 9.7 | 0.00 | 0.00 | 0.00 | 100 | 1016.4 |
| 20260905193012 | 21 | 67 | 0.0 | 4.8 | 0.00 | 0.00 | 0.00 | 100 | 1016.6 |